Terug naar catalogus

STARLINK-30805

ActiefCommunicatieVLEO
NORAD 58214·PAYLOAD·🇺🇸 United States

Gelanceerd Nov 3, 2023 vanaf Cape Canaveral Space Force Station

Loading…

Volgende Passages (komende 24 uur)

TLE

VersSource: CelesTrak SupGP

Epoch: Sep 14, 2026, 21:59 UTC

1 58214C 23170J   26257.91645833  .00009641  00000+0  34922-3 0  2573
2 58214  43.0017 205.2951 0001559 260.3261  58.6890 15.27570335    16

Volg STARLINK-30805 in realtime met AllMySat

Download on the App Store